This demonstration page uses our WeatherBlox Daily Observations layout. Learn more.

Left ArrowRight Arrow

Hourly Observations for March 6, 2020

Temp ( °F °C ) Dew Point ( °F °C ) Humidity (%) Winds ( mph kmh ) Pressure ( in mb ) Visibility ( mi km ) Precip ( " mm )
12:56 am 00:56 Clear 31 -0.7 23 -4.9 74 74 WNW 7 11 30.49 1032 10 16 0.00 0.00
1:56 am 01:56 Clear 29 -1.4 23 -4.9 77 77 WNW 7 11 30.51 1033 10 16 0.00 0.00
2:56 am 02:56 Clear 29 -1.7 23 -5 78 78 W 7 11 30.52 1034 10 16 0.00 0.00
3:56 am 03:56 Clear 28 -2 23 -5 80 80 N 7 11 30.54 1034 10 16 0.00 0.00
4:56 am 04:56 undefined 26 -3.6 21 -5.9 84 84 WNW 5 7 30.53 1034 10 16 0.00 0.00
5:56 am 05:56 Clear 24 -4.6 20 -6.6 86 86 Calm 30.55 1034 10 16 0.00 0.00
6:56 am 06:56 Sunny 23 -5 19 -7 86 86 NW 3 6 30.57 1035 10 16 0.00 0.00
7:56 am 07:56 Sunny 28 -2.1 23 -4.8 82 82 WNW 5 7 30.59 1036 10 16 0.00 0.00
8:56 am 08:56 Sunny 35 1.4 25 -3.9 68 68 NE 6 9 30.58 1036 10 16 0.00 0.00
9:56 am 09:56 Sunny 37 2.7 25 -4.1 61 61 Calm 30.59 1036 10 16 0.00 0.00
10:56 am 10:56 Sunny 42 5.6 22 -5.4 45 45 S 5 7 30.59 1036 10 16 0.00 0.00
11:56 am 11:56 Sunny 45 7.3 23 -5.1 41 41 SSE 6 9 30.58 1036 10 16 0.00 0.00
12:56 pm 12:56 Sunny 48 9.1 19 -7.2 31 31 SE 6 9 30.53 1034 10 16 0.00 0.00
1:56 pm 13:56 Sunny 52 10.9 20 -6.9 28 28 S 9 15 30.49 1032 10 16 0.00 0.00
2:56 pm 14:56 Sunny 53 11.7 19 -7.2 26 26 S 6 9 30.45 1031 10 16 0.00 0.00
3:56 pm 15:56 Sunny 54 12.1 17 -8.4 23 23 SSE 10 17 30.40 1030 10 16 0.00 0.00
4:56 pm 16:56 Sunny 53 11.6 16 -8.9 23 23 SSE 14 22 30.41 1030 10 16 0.00 0.00
5:56 pm 17:56 Sunny 50 10.2 18 -8 27 27 SSE 14 22 30.38 1029 10 16 0.00 0.00
6:56 pm 18:56 Clear 44 6.5 17 -8.2 34 34 SSE 6 9 30.37 1029 10 16 0.00 0.00
7:56 pm 19:56 Clear 42 5.5 16 -8.8 35 35 SSE 8 13 30.38 1029 10 16 0.00 0.00
8:56 pm 20:56 Clear 38 3.2 16 -8.8 41 41 SE 6 9 30.37 1029 10 16 0.00 0.00
9:56 pm 21:56 Clear 41 4.9 18 -7.9 39 39 SSE 9 15 30.36 1028 10 16 0.00 0.00
10:56 pm 22:56 Clear 41 5.1 17 -8.1 38 38 SSE 10 17 30.35 1028 10 16 0.00 0.00
11:56 pm 23:56 Clear 41 5 18 -7.8 39 39 SSE 12 19 30.32 1027 10 16 0.00 0.00

Powered by AerisWeather